BREEZE-KM DEB, 41718

Orbit data source: Space-Track

BREEZE-KM DEB, 41718 is space debris in LEO originally from a launch on Tue, 31 Mar 2015 UTC launched from the Plesetsk Missile And Space Complex (PKMTR). Debris objects in space refer to the collection of defunct objects orbiting the Earth. Examples of debris include non-operational satellites, rocket bodies, and fragments generated from explosions, collisions, or faulty payload assembly.

Loading next visibility...
Identifier
41718, 2015-020F
Orbit
LEO
Country
Flag of CISCIS
Related business
Manufacturer
Khrunichev
Mission
Spacecraft
Bus & Motor
Unknown
Mass
Unknown
Launch date (UTC)
2015-03-31 (10 years ago)
Launch vehicle
Unknown
Launch site
Plesetsk Missile And Space Complex (PKMTR)
Object type
Payload
Rocket body
Debris
Shape & HBR
Unknown
Radar Cross Section
Small (<0.1 m²)

Expand to show TLE details & history
Last TLE update: 4 days ago

TLE from 4 days ago
0 BREEZE-KM DEB
1 41718U 15020F   25239.59465533  .00000049  00000-0  12998-3 0  9995
2 41718  82.4937 352.4851 0228201 215.3600 143.2194 12.91298751481996
Epoch: 2025-08-27T14:16Z
TLE epoch observation values (Epoch: 2025-08-27T14:16:18.22Z)
Latitude
0.00002°
Longitude
162.33942°
Altitude
1,440.832 km
Speed
7.075 km/s
True Right ascension
23h 29m 56s
True Declination
0° 00' 00"
Sunlit
Object was in full shadow at epoch
Visualization orbit readout
Latitude
Unknown
Longitude
Unknown
Altitude
Unknown
Speed
Unknown
Apparent Right ascension
Unknown
Apparent Declination
Unknown
Sunlit
N/A
Visualization observer readout
Local Sidereal Time
13:55:29
Azimuth
Unknown
Elevation
Unknown
Doppler factor
Unknown
Orbital elements
Apogee altitude
1,468.725 km
Perigee altitude
1,118.583 km
Semi-major axis
7,671.791 km
Eccentricity
0.02282
Inclination
82.4937°
RAAN
352.4851°
Arg. of periapsis
215.36°
True anomaly
144.74995°
Mean anomaly
143.2194°
Eccentric anomaly
143.98815°
Mean motion
3.22997 °/min
Orbital period
111.46 mins
BSTAR
0.00012998
Loading maneuver chart data...
Computing Atmospheric mass density...
Loading historical data...
Loading historical data...
Loading historical data...
Loading historical data...
Loading historical data...
Loading historical data...
Loading historical data...

Documentation

Showing up to 5 results
|